Voltar ao catálogo

JILIN-01-04

AtivoCiênciaSSO
NORAD 43022·PAYLOAD·🇨🇳 China

Lançado Nov 21, 2017 de Taiyuan Satellite Launch Center

Loading…

Próximas Passagens (próximas 24 horas)

TLE

AtualizadoSource: Space-Track

Época: Sep 14, 2026, 22:33 UTC

1 43022U 17074A   26257.94005661  .00014821  00000-0  32094-3 0  9990
2 43022  97.4916  10.1146 0002844 214.3141 145.7924 15.44549366488117

Acompanhe JILIN-01-04 em tempo real com AllMySat

Download on the App Store